Вернуться в каталог

CZ-6A DEB

АктивенSSO
NORAD 54315·DEBRIS·🇨🇳 China

Запущен Nov 11, 2022 с Taiyuan Satellite Launch Center

Loading…

Ближайшие Пролёты (ближайшие 24 часа)

TLE

СвежийSource: Space-Track

Эпоха: Sep 14, 2026, 23:09 UTC

1 54315U 22151BJ  26257.96527315  .00000125  00000-0  92840-4 0  9994
2 54315  98.8518 260.1465 0044814  90.6780 269.9526 14.10957746197172

Отслеживайте CZ-6A DEB в реальном времени с AllMySat

Download on the App Store